Scottsboro, AL

5:51 PM CDT on September 19, 2017 (GMT -0500)
Scottsboro

Weather History for K4A6 - February, 2013

Change the Weather History Date:

Saturday, February 23, 2013

  Actual Average (KHSV) Record (KHSV)
Temperature  
Mean Temperature 44 °F -  
Max Temperature 51 °F 57 °F 83 °F (1996)
Min Temperature 37 °F 37 °F 15 °F (1939)
Degree Days  
Heating Degree Days 21    
Moisture  
Dew Point 45 °F    
Average Humidity 95    
Maximum Humidity 100    
Minimum Humidity 82    
Precipitation  
Precipitation 0.14 in - - ()
Sea Level Pressure  
Sea Level Pressure 29.95 in    
Wind  
Wind Speed 2 mph (SSW)    
Max Wind Speed 7 mph    
Max Gust Speed -    
Visibility 2 miles    
Events Fog , Rain , Thunderstorm    
Averages and records for this station are not official NWS values.
T = Trace of Precipitation, MM = Missing Value Source: NWS Daily Summary

Daily Weather History Graph

Daily Weather History Graph

Search for Another Location

Airport or City:

Trip Planner

Search our weather history database for the weather conditions in past years. The results will help you decide how hot, cold, wet, or windy it might be!

Date:

Astronomy

Feb. 23, 2013 Rise Set
Actual Time 6:20 AM CST 5:34 PM CST
Civil Twilight 5:54 AM CST 6:00 PM CST
Nautical Twilight 5:25 AM CST 6:29 PM CST
Astronomical Twilight 4:56 AM CST 6:58 PM CST
Moon 3:47 PM CST (2/23) 4:39 AM CST (2/23)
Length of Visible Light 12h 05m
Length of Day
11h 14m
Waxing Gibbous, 95% of the Moon is Illuminated
Feb 23
Waxing Gibbous
Feb 25
Full
Mar 4
Last Quarter
Mar 11
New
Mar 19
First Quarter

Hourly Weather History & Observations

Time (CST) Temp. Windchill Dew Point Humidity Pressure Visibility Wind Dir Wind Speed Gust Speed Precip Events Conditions
12:15 AM 44.6 °F - 44.6 °F 100% 30.03 in 1.5 mi Calm Calm - N/A   Mostly Cloudy
12:35 AM 44.6 °F 42.2 °F 44.6 °F 100% 30.05 in 1.5 mi WNW 4.6 mph - 0.03 in Rain Light Rain
12:55 AM 44.6 °F 43.1 °F 44.6 °F 100% 30.02 in 1.8 mi NE 3.5 mph - 0.08 in Rain Rain
1:15 AM 44.6 °F 42.2 °F 44.6 °F 100% 30.00 in 1.5 mi NNE 4.6 mph - N/A   Overcast
1:35 AM 44.6 °F 43.1 °F 44.6 °F 100% 29.98 in 1.5 mi NE 3.5 mph - N/A Rain Light Rain
1:55 AM 44.6 °F 42.2 °F 44.6 °F 100% 30.00 in 1.5 mi NNW 4.6 mph - 0.01 in Rain Light Rain
2:15 AM 44.6 °F 43.1 °F 44.6 °F 100% 29.98 in 1.8 mi ESE 3.5 mph - 0.01 in Rain Light Rain
2:35 AM 44.6 °F - 44.6 °F 100% 29.97 in 1.8 mi Calm Calm - 0.02 in Rain Light Rain
2:55 AM 44.6 °F 43.1 °F 44.6 °F 100% 29.97 in 1.8 mi North 3.5 mph - 0.03 in Rain Light Rain
3:15 AM 44.6 °F - 44.6 °F 100% 29.98 in 1.8 mi Calm Calm - N/A Rain Light Rain
3:35 AM 44.6 °F - 44.6 °F 100% 29.97 in 1.8 mi Calm Calm - 0.01 in Rain Light Rain
3:55 AM 44.6 °F - 44.6 °F 100% 29.96 in 1.0 mi Calm Calm - 0.01 in Rain Light Rain
4:15 AM 44.6 °F - 44.6 °F 100% 29.96 in 1.8 mi Calm Calm - N/A   Overcast
4:35 AM 44.6 °F - 44.6 °F 100% 29.96 in 1.8 mi Calm Calm - N/A   Overcast
4:55 AM 44.6 °F 43.1 °F 44.6 °F 100% 29.96 in 2.0 mi North 3.5 mph - 0.01 in Rain Light Rain
5:15 AM 44.6 °F 43.1 °F 44.6 °F 100% 29.95 in 1.8 mi NE 3.5 mph - N/A   Overcast
5:35 AM 44.6 °F - 44.6 °F 100% 29.96 in 2.0 mi Calm Calm - N/A   Overcast
5:55 AM 44.6 °F - 44.6 °F 100% 29.96 in 2.0 mi Calm Calm - N/A   Overcast
6:15 AM 44.6 °F - 44.6 °F 100% 29.97 in 1.8 mi Calm Calm - N/A   Overcast
6:35 AM 44.6 °F - 44.6 °F 100% 29.97 in 1.8 mi Calm Calm - N/A   Overcast
6:55 AM 44.6 °F - 44.6 °F 100% 29.97 in 1.0 mi Calm Calm - N/A   Overcast
7:15 AM 46.4 °F - 46.4 °F 100% 29.97 in 1.0 mi Calm Calm - N/A   Overcast
7:35 AM 46.4 °F - 46.4 °F 100% 29.98 in 1.2 mi Calm Calm - N/A   Overcast
7:55 AM 46.4 °F - 46.4 °F 100% 29.97 in 1.8 mi Calm Calm - N/A   Overcast
8:15 AM 46.4 °F - 46.4 °F 100% 29.97 in 1.8 mi Calm Calm - N/A   Overcast
8:35 AM 46.4 °F - 46.4 °F 100% 29.97 in 1.8 mi Calm Calm - N/A   Overcast
8:55 AM 46.4 °F - 46.4 °F 100% 29.97 in 2.0 mi Calm Calm - N/A   Overcast
9:15 AM 48.2 °F - 46.4 °F 93% 29.97 in 2.5 mi Calm Calm - N/A   Overcast
9:35 AM 48.2 °F - 46.4 °F 93% 29.96 in 3.0 mi NE 3.5 mph - N/A   Overcast
9:55 AM 48.2 °F - 46.4 °F 93% 29.97 in 2.5 mi NNE 4.6 mph - N/A   Overcast
10:15 AM 48.2 °F - 46.4 °F 93% 29.96 in 3.0 mi NNE 4.6 mph - N/A   Overcast
10:35 AM 48.2 °F - 46.4 °F 93% 29.96 in 2.5 mi NE 5.8 mph - N/A   Overcast
10:55 AM 48.2 °F - 46.4 °F 93% 29.97 in 2.0 mi ENE 3.5 mph - N/A   Overcast
11:15 AM 48.2 °F - 46.4 °F 93% 29.97 in 3.0 mi ESE 3.5 mph - N/A   Overcast
11:35 AM 48.2 °F - 46.4 °F 93% 29.96 in 3.0 mi Calm Calm - N/A   Overcast
11:55 AM 48.2 °F - 46.4 °F 93% 29.95 in 3.0 mi NW 3.5 mph - N/A   Overcast
12:15 PM 48.2 °F - 46.4 °F 93% 29.94 in 3.0 mi Calm Calm - N/A   Overcast
12:35 PM 50.0 °F - 46.4 °F 87% 29.94 in 3.0 mi Calm Calm - N/A   Overcast
12:55 PM 50.0 °F - 46.4 °F 87% 29.94 in 3.0 mi Calm Calm - N/A   Overcast
1:15 PM 50.0 °F - 46.4 °F 87% 29.94 in 3.0 mi South 6.9 mph - N/A   Overcast
1:35 PM 50.0 °F - 46.4 °F 87% 29.92 in 3.0 mi South 4.6 mph - N/A   Overcast
1:55 PM 50.0 °F - 46.4 °F 87% 29.93 in 3.0 mi SSW 3.5 mph - N/A   Overcast
2:15 PM 50.0 °F - 46.4 °F 87% 29.93 in 3.0 mi SW 6.9 mph - N/A   Overcast
2:35 PM 50.0 °F - 46.4 °F 87% 29.92 in 3.0 mi South 4.6 mph - N/A   Mostly Cloudy
2:55 PM 51.8 °F - 46.4 °F 82% 29.92 in 3.0 mi SW 4.6 mph - N/A   Haze
3:15 PM 51.8 °F - 46.4 °F 82% 29.91 in 3.0 mi SSW 5.8 mph - N/A   Haze
3:35 PM 51.8 °F - 46.4 °F 82% 29.91 in 4.0 mi SSW 3.5 mph - N/A   Haze
3:55 PM 51.8 °F - 46.4 °F 82% 29.90 in 3.0 mi South 4.6 mph - N/A   Haze
4:15 PM 50.0 °F - 46.4 °F 87% 29.88 in 3.0 mi South 5.8 mph - N/A   Clear
4:35 PM 50.0 °F - 46.4 °F 87% 29.89 in 3.0 mi SSW 5.8 mph - N/A   Clear
4:55 PM 50.0 °F - 46.4 °F 87% 29.89 in 3.0 mi SW 3.5 mph - N/A   Clear
5:15 PM 50.0 °F - 46.4 °F 87% 29.89 in 3.0 mi SW 3.5 mph - N/A   Clear
5:35 PM 50.0 °F - 46.4 °F 87% 29.89 in 3.0 mi Calm Calm - N/A   Clear
5:55 PM 48.2 °F - 46.4 °F 93% 29.90 in 4.0 mi SSW 3.5 mph - N/A   Clear
6:15 PM 48.2 °F - 46.4 °F 93% 29.90 in 4.0 mi Calm Calm - N/A   Clear
6:55 PM 46.4 °F 45.2 °F 44.6 °F 93% 29.92 in 3.0 mi WSW 3.5 mph - N/A   Clear
7:15 PM 46.4 °F 45.2 °F 44.6 °F 93% 29.94 in 3.0 mi SW 3.5 mph - N/A   Clear
7:35 PM 44.6 °F - 44.6 °F 100% 29.95 in 3.0 mi Calm Calm - N/A   Clear
7:55 PM 44.6 °F 43.1 °F 44.6 °F 100% 29.95 in 3.0 mi SW 3.5 mph - N/A   Clear
8:15 PM 44.6 °F - 44.6 °F 100% 29.96 in 3.0 mi Calm Calm - N/A   Clear
8:35 PM 42.8 °F - 42.8 °F 100% 29.96 in 2.5 mi Calm Calm - N/A   Clear
8:55 PM 41.0 °F - 41.0 °F 100% 29.96 in 1.0 mi Calm Calm - N/A   Clear
9:15 PM 41.0 °F - 41.0 °F 100% 29.96 in 1.5 mi Calm Calm - N/A Thunderstorm Clear
9:35 PM 39.2 °F - 39.2 °F 100% 29.96 in 1.5 mi Calm Calm - N/A   Clear
10:15 PM 37.4 °F - 37.4 °F 100% 29.96 in 0.5 mi Calm Calm - N/A Fog Fog
10:35 PM 37.4 °F - 37.4 °F 100% 29.96 in 0.5 mi Calm Calm - N/A Fog Fog
10:55 PM 37.4 °F - 37.4 °F 100% 29.96 in 0.5 mi Calm Calm - N/A Fog Fog
11:15 PM 37.4 °F - 37.4 °F 100% 29.96 in 0.5 mi Calm Calm - N/A Fog Fog
11:35 PM 37.4 °F - 37.4 °F 100% 29.96 in 0.5 mi Calm Calm - N/A Fog Fog
11:55 PM 37.4 °F - 37.4 °F 100% 29.97 in 0.2 mi Calm Calm - N/A Fog Fog